NOZ65K ZSJN-ZYTL

Flight info

Callsign NOZ65K
Flight time N/A
Altitude 35100
Route BASOV7Y BASOV W4 HCH W173 NIXEP NIX08A
Aircraft B733/M-SDE2E3FHIRW/S

Departure

Time 2026-04-16 14:41
Airport Jinan Yaoqiang International Airport (ZSJN)

Arrival

Time N/A
Airport Dalian Zhoushuizi International Airport (ZYTL)
Time Latitude Longitude Altitude Speed Heading
2026-04-16 14:23 36.85304 117.20864 82 ft 0 kts 269°
2026-04-16 14:32 36.85304 117.20866 82 ft 1 kts 269°
2026-04-16 14:32 36.85304 117.20881 82 ft 2 kts 268°
2026-04-16 14:33 36.85305 117.20894 82 ft 2 kts 269°
2026-04-16 14:33 36.85305 117.20912 82 ft 2 kts 289°
2026-04-16 14:33 36.85302 117.20919 82 ft 2 kts 306°
2026-04-16 14:33 36.85296 117.20927 82 ft 2 kts 325°
2026-04-16 14:34 36.85286 117.20933 82 ft 1 kts 350°
2026-04-16 14:34 36.85280 117.20934 82 ft 1 kts
2026-04-16 14:34 36.85275 117.20933 82 ft 0 kts 360°
2026-04-16 14:35 36.85279 117.20933 82 ft 1 kts
2026-04-16 14:35 36.85283 117.20940 82 ft 3 kts 61°
2026-04-16 14:36 36.85291 117.20972 82 ft 8 kts 67°
2026-04-16 14:36 36.85327 117.21060 82 ft 15 kts 61°
2026-04-16 14:36 36.85388 117.21178 82 ft 19 kts 49°
2026-04-16 14:36 36.85471 117.21259 82 ft 19 kts 40°
2026-04-16 14:37 36.85548 117.21280 82 ft 18 kts 357°
2026-04-16 14:37 36.85684 117.21272 82 ft 19 kts
2026-04-16 14:37 36.85800 117.21373 82 ft 18 kts
2026-04-16 14:37 36.85950 117.21371 82 ft 18 kts 360°
2026-04-16 14:38 36.86098 117.21371 82 ft 18 kts
2026-04-16 14:38 36.86251 117.21371 82 ft 19 kts 359°
2026-04-16 14:38 36.86407 117.21373 82 ft 19 kts
2026-04-16 14:38 36.86604 117.21372 82 ft 20 kts 358°
2026-04-16 14:39 36.86951 117.21373 82 ft 20 kts
2026-04-16 14:39 36.87124 117.21372 82 ft 20 kts 359°
2026-04-16 14:39 36.87289 117.21373 82 ft 19 kts
2026-04-16 14:40 36.87332 117.21574 82 ft 13 kts 126°
2026-04-16 14:40 36.87229 117.21600 82 ft 0 kts 179°
2026-04-16 14:40 36.87226 117.21600 82 ft 1 kts 179°
2026-04-16 14:40 36.87209 117.21601 82 ft 2 kts 179°
2026-04-16 14:41 36.87174 117.21601 82 ft 11 kts 180°
2026-04-16 14:41 36.86787 117.21601 82 ft 86 kts 180°
2026-04-16 14:41 36.84286 117.21554 914 ft 162 kts 183°
2026-04-16 14:42 36.82962 117.22245 2036 ft 147 kts 122°